Total_Precipitation_Accumulation
0.00 0.00 0.00 0.01 0.00 0.00 0.00 0.01 0.00 0.05 0.00 0.01 0.00 0.01 0.02 0.00 0.00 0.03 0.01 0.03 0.01 0.00 0.01 0.02 0.01 0.02 0.02 0.29 0.07 0.04 0.06 0.20 0.19 0.40 0.85 0.17 0.19 0.50 0.03 0.06 0.03 0.03 0.03 0.09 0.06 0.10 0.11 0.06 0.00 0.01 0.01 0.02 0.01 0.01 0.03 0.04 0.03 0.03 0.03 0.02 0.04 0.04 0.02 0.04 0.04 0.03 0.03 0.02 0.03 0.03 0.03 0.04 0.04 0.03 0.05 0.05 0.08 0.06 0.05 0.06 0.06 0.10 0.16 0.15 0.12 0.10 0.08 0.08 0.09 0.09 0.13 0.08 0.06 0.07 0.10 0.13 0.09
0.00 0.00 0.00 0.00 0.00 0.00 0.02 0.01 0.00 0.00 0.00 0.00 0.00 0.01 0.00 0.00 0.00 0.00 0.04 0.03 0.05 0.04 0.02 0.00 0.01 0.04 0.02 0.05 0.06 0.06 0.08 0.07 0.12 0.14 0.29 0.20 0.17 0.43 0.16 0.04 0.01 0.03 0.05 0.08 0.05 0.05 0.07 0.12 0.01 0.01 0.01 0.02 0.02 0.02 0.02 0.03 0.03 0.03 0.03 0.03 0.02 0.03 0.04 0.02 0.02 0.04 0.03 0.03 0.03 0.06 0.07 0.05 0.05 0.05 0.08 0.09 0.07 0.03 0.04 0.06 0.13 0.16 0.11 0.11 0.12 0.08 0.08 0.13 0.15 0.09 0.09 0.11 0.09 0.13 0.06 0.05 0.05
0.00 0.00 0.00 0.00 0.00 0.00 0.00 0.01 0.02 0.00 0.00 0.00 0.02 0.02 0.02 0.00 0.00 0.00 0.00 0.01 0.05 0.00 0.00 0.00 0.01 0.00 0.02 0.07 0.12 0.09 1.23 0.11 0.06 0.12 0.28 0.22 0.18 0.49 0.26 0.10 0.02 0.02 0.03 0.07 0.06 0.04 0.05 0.07 0.01 0.00 0.07 0.02 0.01 0.02 0.04 0.05 0.02 0.03 0.03 0.03 0.03 0.04 0.02 0.03 0.04 0.03 0.03 0.04 0.06 0.08 0.06 0.07 0.07 0.07 0.06 0.07 0.06 0.05 0.04 0.06 0.17 0.10 0.09 0.09 0.09 0.09 0.09 0.10 0.17 0.19 0.08 0.09 0.07 0.05 0.04 0.02 0.02
0.00 0.00 0.00 0.00 0.01 0.00 0.00 0.00 0.02 0.09 0.01 0.00 0.01 0.00 0.01 0.01 0.01 0.01 0.00 0.01 0.01 0.00 0.00 0.02 0.05 0.01 0.10 0.27 0.29 0.04 0.15 0.20 0.12 0.05 0.28 0.23 0.13 0.16 0.22 0.10 0.05 0.06 0.05 0.08 0.05 0.05 0.03 0.09 0.03 0.02 0.02 0.01 0.02 0.04 0.06 0.03 0.03 0.02 0.03 0.03 0.04 0.01 0.02 0.04 0.04 0.04 0.02 0.05 0.09 0.07 0.08 0.07 0.09 0.16 0.08 0.06 0.03 0.02 0.02 0.03 0.05 0.09 0.05 0.05 0.07 0.08 0.08 0.08 0.08 0.12 0.09 0.04 0.04 0.02 0.02 0.02 0.02
0.00 0.00 0.00 0.00 0.00 0.00 0.00 0.00 0.00 0.00 0.00 0.02 0.01 0.00 0.00 0.00 0.00 0.00 0.00 0.00 0.01 0.00 0.00 0.01 0.01 0.04 0.05 0.11 0.08 0.39 0.40 0.12 0.11 0.08 0.10 0.15 0.08 0.16 0.19 0.16 0.09 0.08 0.08 0.11 0.06 0.04 0.07 0.07 0.03 0.01 0.01 0.03 0.03 0.07 0.04 0.05 0.03 0.03 0.02 0.03 0.02 0.03 0.02 0.04 0.06 0.05 0.07 0.07 0.07 0.07 0.09 0.11 0.08 0.12 0.10 0.08 0.05 0.02 0.01 0.01 0.01 0.03 0.03 0.03 0.01 0.02 0.02 0.03 0.05 0.05 0.03 0.03 0.02 0.02 0.03 0.01 0.02
0.00 0.00 0.00 0.00 0.00 0.00 0.00 0.00 0.00 0.00 0.00 0.00 0.02 0.00 0.00 0.00 0.00 0.00 0.00 0.00 0.00 0.00 0.00 0.00 0.03 0.11 0.06 0.13 0.09 0.24 0.18 0.55 0.15 0.21 0.12 0.16 0.17 0.17 0.18 0.10 0.07 0.08 0.11 0.11 0.06 0.03 0.06 0.08 0.02 0.01 0.01 0.03 0.07 0.07 0.05 0.05 0.04 0.03 0.02 0.04 0.04 0.04 0.03 0.07 0.05 0.04 0.07 0.06 0.05 0.10 0.07 0.07 0.15 0.05 0.07 0.12 0.06 0.05 0.03 0.01 0.01 0.01 0.06 0.03 0.02 0.02 0.03 0.03 0.02 0.01 0.03 0.02 0.01 0.02 0.01 0.01 0.01
0.02 0.02 0.00 0.00 0.00 0.00 0.00 0.01 0.01 0.00 0.00 0.00 0.01 0.05 0.00 0.00 0.00 0.00 0.00 0.00 0.00 0.00 0.00 0.03 0.00 0.02 0.10 0.06 0.02 0.10 0.10 0.05 0.20 0.17 0.10 0.15 0.34 0.18 0.31 0.14 0.04 0.10 0.11 0.11 0.07 0.05 0.06 0.03 0.01 0.01 0.01 0.04 0.12 0.06 0.04 0.06 0.05 0.03 0.03 0.03 0.03 0.03 0.06 0.04 0.05 0.07 0.05 0.07 0.06 0.06 0.09 0.05 0.05 0.06 0.15 0.12 0.15 0.07 0.08 0.04 0.07 0.12 0.06 0.02 0.04 0.03 0.03 0.03 0.02 0.02 0.01 0.02 0.02 0.01 0.00 0.00 0.00
0.00 0.01 0.01 0.01 0.01 0.00 0.00 0.00 0.00 0.00 0.00 0.00 0.00 0.09 0.01 0.01 0.01 0.01 0.00 0.00 0.02 0.00 0.00 0.00 0.04 0.02 0.40 0.00 0.42 0.12 0.17 0.16 0.07 0.13 0.08 0.12 0.16 0.24 0.21 0.12 0.12 0.19 0.21 0.18 0.08 0.06 0.28 0.02 0.02 0.01 0.04 0.04 0.05 0.05 0.05 0.06 0.05 0.06 0.03 0.04 0.04 0.05 0.05 0.06 0.04 0.05 0.05 0.06 0.05 0.08 0.09 0.03 0.05 0.07 0.06 0.06 0.05 0.10 0.05 0.03 0.09 0.13 0.06 0.09 0.07 0.02 0.02 0.01 0.01 0.01 0.02 0.01 0.00 0.00 0.00 0.01 0.00
0.00 0.00 0.00 0.00 0.00 0.01 0.00 0.00 0.00 0.00 0.00 0.00 0.00 0.00 0.01 0.04 0.02 0.01 0.04 0.01 0.01 0.00 0.02 0.01 0.03 0.08 0.31 0.17 0.30 0.22 0.23 0.16 0.20 0.10 0.21 0.36 0.15 0.32 0.24 0.30 0.31 0.40 0.44 0.54 0.13 0.15 0.16 0.03 0.02 0.01 0.03 0.03 0.07 0.07 0.07 0.06 0.07 0.06 0.06 0.10 0.04 0.02 0.04 0.05 0.05 0.07 0.07 0.06 0.06 0.08 0.09 0.03 0.06 0.06 0.06 0.04 0.10 0.07 0.02 0.04 0.07 0.13 0.08 0.04 0.03 0.01 0.01 0.02 0.04 0.07 0.01 0.00 0.00 0.00 0.00 0.00 0.00
0.00 0.00 0.00 0.01 0.00 0.04 0.01 0.02 0.01 0.01 0.00 0.00 0.00 0.00 0.00 0.01 0.00 0.00 0.01 0.02 0.02 0.00 0.00 0.00 0.00 0.08 0.13 0.38 0.30 0.35 0.38 0.21 0.20 0.51 0.37 0.10 0.23 0.16 0.30 0.34 0.60 0.46 0.56 0.54 0.27 0.14 0.15 0.39 0.04 0.02 0.02 0.03 0.05 0.05 0.05 0.03 0.04 0.05 0.09 0.03 0.04 0.02 0.03 0.05 0.02 0.05 0.08 0.07 0.06 0.06 0.09 0.04 0.03 0.05 0.02 0.07 0.10 0.05 0.06 0.03 0.04 0.06 0.07 0.05 0.04 0.02 0.00 0.01 0.04 0.02 0.01 0.00 0.01 0.01 0.00 0.00 0.00
0.07 0.00 0.00 0.00 0.00 0.00 0.01 0.00 0.01 0.00 0.00 0.00 0.00 0.00 0.00 0.00 0.01 0.01 0.00 0.01 0.00 0.02 0.01 0.03 0.02 0.12 0.05 0.54 0.56 0.25 0.17 0.20 0.22 0.38 0.30 0.50 0.23 0.22 0.28 0.31 0.33 0.48 0.82 0.58 0.36 0.13 0.21 0.22 0.42 0.07 0.04 0.06 0.04 0.08 0.09 0.06 0.08 0.07 0.03 0.02 0.02 0.06 0.06 0.02 0.04 0.06 0.07 0.06 0.05 0.06 0.05 0.03 0.03 0.04 0.05 0.09 0.07 0.09 0.04 0.05 0.06 0.10 0.07 0.05 0.02 0.01 0.02 0.01 0.01 0.01 0.02 0.01 0.00 0.00 0.00 0.00 0.00
0.11 0.01 0.01 0.02 0.00 0.00 0.00 0.00 0.01 0.00 0.00 0.00 0.00 0.00 0.00 0.00 0.00 0.00 0.01 0.01 0.01 0.01 0.08 0.05 0.10 0.02 0.17 0.30 0.36 0.68 0.27 0.27 0.19 0.22 0.23 0.21 0.37 0.21 0.25 0.44 0.41 0.52 0.90 0.87 0.26 0.18 0.25 0.33 0.33 0.75 0.16 0.12 0.08 0.14 0.08 0.10 0.05 0.03 0.02 0.05 0.08 0.05 0.02 0.02 0.03 0.07 0.08 0.05 0.04 0.03 0.04 0.04 0.06 0.09 0.06 0.06 0.04 0.05 0.04 0.05 0.06 0.08 0.04 0.05 0.02 0.01 0.01 0.01 0.01 0.00 0.00 0.00 0.00 0.00 0.00 0.00 0.00
0.01 0.04 0.13 0.00 0.00 0.00 0.00 0.00 0.00 0.01 0.01 0.00 0.00 0.00 0.00 0.00 0.00 0.00 0.01 0.00 0.02 0.03 0.05 0.01 0.13 0.12 0.25 0.37 0.31 0.40 0.34 0.37 0.18 0.12 0.18 0.16 0.22 0.22 0.22 0.37 0.49 0.74 1.01 0.53 0.31 0.30 0.31 0.17 0.29 0.42 0.34 0.27 0.14 0.12 0.11 0.12 0.09 0.08 0.10 0.07 0.04 0.05 0.04 0.04 0.06 0.08 0.07 0.05 0.02 0.03 0.06 0.05 0.06 0.12 0.09 0.06 0.03 0.04 0.04 0.04 0.02 0.03 0.04 0.03 0.01 0.00 0.00 0.00 0.00 0.00 0.00 0.00 0.00 0.00 0.00 0.00 0.00
0.00 0.00 0.01 0.05 0.01 0.02 0.00 0.00 0.00 0.00 0.00 0.00 0.00 0.00 0.00 0.00 0.00 0.00 0.00 0.03 0.01 0.04 0.02 0.00 0.03 0.05 0.72 0.21 0.74 0.45 0.47 0.26 0.26 0.19 0.18 0.19 0.20 0.31 0.33 0.42 1.27 1.36 0.79 0.80 0.70 0.77 0.40 0.31 0.34 0.33 0.39 0.32 0.48 0.38 0.16 0.13 0.16 0.11 0.08 0.10 0.08 0.05 0.02 0.06 0.05 0.04 0.06 0.03 0.04 0.08 0.09 0.10 0.08 0.06 0.04 0.04 0.04 0.04 0.01 0.02 0.05 0.04 0.04 0.01 0.00 0.01 0.00 0.00 0.00 0.00 0.00 0.00 0.00 0.00 0.00 0.00 0.00
0.00 0.00 0.00 0.00 0.00 0.00 0.01 0.00 0.00 0.00 0.00 0.00 0.00 0.00 0.00 0.00 0.00 0.00 0.00 0.04 0.10 0.05 0.02 0.02 0.08 0.06 1.14 0.29 0.53 0.32 0.28 0.17 0.14 0.11 0.21 0.27 0.28 0.17 0.35 0.46 0.66 0.90 1.02 0.83 0.72 0.59 0.43 0.50 0.40 0.43 0.54 0.32 0.43 0.37 0.40 0.64 0.15 0.13 0.03 0.04 0.04 0.02 0.02 0.02 0.04 0.04 0.06 0.03 0.03 0.06 0.10 0.10 0.09 0.04 0.02 0.03 0.02 0.01 0.04 0.03 0.06 0.03 0.01 0.01 0.00 0.00 0.00 0.00 0.00 0.00 0.00 0.00 0.00 0.00 0.00 0.00 0.00
0.00 0.00 0.00 0.00 0.01 0.01 0.00 0.01 0.02 0.00 0.00 0.00 0.00 0.00 0.00 0.00 0.00 0.00 0.00 0.02 0.02 0.02 0.02 0.11 0.02 0.18 0.18 0.19 0.29 0.22 0.34 0.26 0.13 0.15 0.20 0.20 0.23 0.24 0.44 0.75 1.03 0.85 1.00 1.62 1.21 0.65 0.61 0.49 0.41 0.46 0.46 0.50 0.39 0.27 0.25 0.29 0.40 0.12 0.09 0.05 0.08 0.06 0.04 0.03 0.01 0.03 0.06 0.10 0.17 0.18 0.20 0.41 0.21 0.32 0.13 0.31 0.11 0.04 0.01 0.12 0.04 0.01 0.01 0.00 0.01 0.00 0.00 0.00 0.00 0.00 0.00 0.00 0.00 0.00 0.00 0.00 0.00
0.00 0.00 0.00 0.00 0.00 0.01 0.00 0.00 0.00 0.01 0.00 0.00 0.00 0.00 0.00 0.00 0.00 0.00 0.00 0.04 0.02 0.07 0.01 0.01 0.13 0.05 0.17 0.20 0.14 0.17 0.12 0.08 0.06 0.14 0.17 0.25 0.24 0.32 0.62 0.83 1.00 1.22 1.08 1.20 1.30 1.09 1.21 1.01 0.66 0.68 0.57 0.40 0.50 0.38 0.30 0.24 0.24 0.22 0.24 0.13 0.09 0.06 0.05 0.04 0.03 0.07 0.12 0.19 0.14 0.30 0.11 0.42 0.33 0.31 0.39 0.32 0.11 0.14 0.02 0.04 0.02 0.00 0.00 0.00 0.00 0.00 0.00 0.00 0.00 0.00 0.00 0.00 0.00 0.00 0.00 0.00 0.00
0.00 0.00 0.00 0.00 0.00 0.00 0.00 0.00 0.00 0.00 0.00 0.00 0.00 0.00 0.00 0.00 0.00 0.00 0.00 0.02 0.01 0.02 0.05 0.06 0.07 0.18 0.18 0.13 0.16 0.07 0.06 0.09 0.11 0.11 0.17 0.32 0.36 0.48 0.74 1.45 1.14 1.40 1.16 1.41 1.81 0.96 0.86 0.79 0.78 0.80 0.77 0.65 0.67 0.50 0.36 0.37 0.32 0.32 0.34 0.37 0.41 0.30 0.22 0.16 0.15 0.12 0.34 0.37 0.27 0.24 0.48 0.53 0.37 0.52 0.46 0.45 0.26 0.18 0.15 0.02 0.01 0.00 0.00 0.00 0.00 0.00 0.00 0.00 0.00 0.00 0.00 0.00 0.00 0.00 0.00 0.03 0.02
0.00 0.00 0.00 0.00 0.00 0.00 0.00 0.00 0.00 0.00 0.00 0.00 0.01 0.01 0.00 0.00 0.00 0.00 0.03 0.01 0.02 0.02 0.07 0.07 0.26 0.26 0.26 0.12 0.11 0.17 0.09 0.12 0.13 0.10 0.11 0.13 0.26 0.27 0.33 0.52 1.03 1.30 1.53 1.08 1.37 1.64 1.63 1.28 1.72 1.13 0.92 0.86 1.10 0.65 0.50 0.39 0.50 0.50 0.53 0.58 0.42 0.30 0.43 0.24 0.13 0.22 0.34 0.20 0.31 0.68 0.81 1.00 0.94 0.58 0.81 0.38 0.32 0.08 0.21 0.03 0.01 0.00 0.00 0.00 0.00 0.00 0.00 0.01 0.00 0.00 0.00 0.00 0.00 0.00 0.05 0.15 0.06
0.00 0.00 0.00 0.00 0.00 0.00 0.00 0.00 0.00 0.00 0.00 0.00 0.02 0.00 0.00 0.00 0.00 0.00 0.02 0.01 0.01 0.05 0.06 0.10 0.29 0.41 0.28 0.24 0.36 0.22 0.17 0.14 0.16 0.15 0.17 0.18 0.30 0.39 0.40 0.47 0.81 1.15 0.87 1.09 1.64 1.52 1.02 1.16 1.40 1.46 1.10 1.78 0.80 1.01 0.62 0.42 0.55 0.87 0.53 0.55 0.56 0.54 0.41 0.37 0.24 0.41 0.62 1.04 0.69 1.19 1.28 1.05 1.17 1.13 0.64 0.51 0.42 0.47 0.42 0.04 0.06 0.01 0.00 0.00 0.00 0.01 0.01 0.01 0.01 0.04 0.01 0.00 0.01 0.04 0.28 0.13 0.17
0.00 0.00 0.00 0.00 0.00 0.00 0.00 0.00 0.00 0.00 0.00 0.00 0.01 0.01 0.00 0.00 0.00 0.00 0.00 0.04 0.01 0.07 0.04 0.07 0.14 0.26 0.26 0.42 0.46 0.76 1.17 1.24 1.35 1.13 1.29 0.58 0.50 0.90 1.26 1.06 1.39 1.67 1.56 1.66 1.64 1.95 1.79 2.07 1.92 1.44 1.48 2.05 0.79 0.82 0.89 0.73 0.50 0.64 0.38 0.44 0.60 0.52 0.65 0.62 0.72 0.88 1.23 1.62 1.23 1.74 1.15 0.96 0.95 0.89 0.74 0.63 0.70 0.60 0.52 0.32 0.28 0.25 0.20 0.14 0.01 0.16 0.16 0.16 0.10 0.12 0.05 0.01 0.11 0.17 0.28 0.23 0.12
0.00 0.00 0.00 0.00 0.00 0.00 0.00 0.00 0.00 0.00 0.00 0.00 0.01 0.01 0.01 0.01 0.01 0.00 0.00 0.00 0.05 0.02 0.05 0.03 0.05 0.45 0.17 0.38 0.40 0.55 0.71 0.70 0.94 1.33 2.26 2.06 1.89 1.51 1.44 2.49 1.48 1.22 1.88 1.71 1.78 1.59 1.36 1.15 1.32 1.49 2.27 1.32 1.33 0.68 1.04 0.63 0.63 0.59 0.56 0.67 0.76 0.96 1.31 1.86 1.61 1.63 1.65 1.52 1.36 1.26 1.32 0.85 0.95 1.04 0.77 0.88 1.13 0.85 0.77 0.88 0.69 0.40 0.39 0.23 0.10 0.50 0.40 0.18 0.28 0.10 0.13 0.10 0.11 0.21 0.38 0.18 0.07
0.00 0.00 0.00 0.00 0.00 0.00 0.00 0.00 0.00 0.00 0.00 0.01 0.00 0.00 0.00 0.01 0.01 0.00 0.00 0.06 0.06 0.05 0.11 0.03 0.09 0.15 0.10 0.14 0.15 0.30 0.58 0.88 1.73 2.22 2.73 3.11 2.50 1.95 1.75 2.06 1.54 1.88 1.96 2.23 2.09 2.47 2.27 2.10 1.76 2.73 2.21 1.22 0.89 0.89 1.07 0.63 0.83 0.83 0.91 0.79 0.81 0.96 1.41 1.79 1.76 1.34 1.61 1.38 1.26 0.99 1.15 0.98 1.04 0.77 1.06 1.08 1.24 0.79 1.09 0.73 1.00 0.79 0.53 0.90 0.21 0.88 0.59 0.22 0.15 0.20 0.17 0.14 0.13 0.13 0.38 0.14 0.11
0.00 0.00 0.00 0.00 0.00 0.00 0.00 0.00 0.00 0.00 0.00 0.00 0.00 0.00 0.00 0.00 0.01 0.00 0.01 0.00 0.03 0.01 0.02 0.02 0.08 0.13 0.14 0.18 0.39 0.29 0.56 1.19 2.03 4.30 4.84 3.05 2.84 3.39 3.54 2.37 1.45 2.41 2.10 2.18 2.22 2.50 2.60 1.58 1.96 2.02 1.81 1.55 1.92 0.99 0.91 0.70 1.05 1.21 1.02 1.06 1.05 0.97 1.42 1.77 1.63 1.85 1.69 1.59 1.04 1.59 1.27 1.02 0.75 0.62 1.21 1.13 0.94 0.84 0.82 0.52 0.72 0.57 0.39 0.66 0.37 0.73 0.71 0.60 0.26 0.24 0.19 0.11 0.15 0.10 0.13 0.14 0.20
0.00 0.00 0.00 0.00 0.00 0.00 0.00 0.00 0.00 0.00 0.00 0.00 0.00 0.00 0.01 0.00 0.01 0.00 0.02 0.01 0.01 0.04 0.00 0.01 0.05 0.14 0.16 0.24 0.59 0.76 1.03 1.67 2.69 3.54 3.11 2.83 3.15 5.35 4.79 3.90 2.56 1.43 1.42 1.63 2.27 2.13 1.71 1.91 1.27 1.69 1.67 1.27 1.98 1.83 1.08 1.09 1.41 1.38 1.06 1.14 0.63 0.71 1.08 1.27 1.12 1.43 1.33 0.88 1.83 1.08 0.98 1.16 0.82 1.02 1.40 1.13 1.20 1.05 0.88 0.77 0.89 0.85 0.95 0.65 0.47 0.58 0.73 0.66 0.30 0.48 0.47 0.23 0.14 0.12 0.23 0.19 0.14
0.00 0.00 0.00 0.00 0.00 0.00 0.00 0.00 0.00 0.00 0.00 0.00 0.00 0.00 0.00 0.00 0.00 0.02 0.11 0.05 0.03 0.02 0.01 0.02 0.04 0.10 0.31 0.34 0.37 0.64 0.76 1.20 1.76 1.74 2.21 2.48 3.21 5.51 3.37 3.80 2.92 1.46 1.96 2.46 1.95 1.52 1.38 1.15 1.28 1.76 1.67 1.70 1.74 1.42 1.02 1.09 1.22 0.93 0.92 0.80 0.81 0.53 0.77 1.02 0.98 1.08 1.00 1.54 0.68 0.53 0.73 0.64 0.80 1.04 1.02 1.00 1.09 1.72 1.44 0.71 0.97 1.25 1.00 0.74 0.88 0.75 0.99 0.78 0.50 0.48 0.47 0.44 0.13 0.10 0.16 0.14 0.29
0.00 0.00 0.00 0.00 0.00 0.00 0.00 0.00 0.00 0.00 0.00 0.00 0.00 0.00 0.00 0.00 0.00 0.18 1.19 0.21 0.06 0.03 0.02 0.05 0.06 0.15 0.41 0.52 0.54 0.72 1.00 1.74 1.48 1.42 2.25 2.57 2.85 4.04 2.10 2.83 2.61 3.43 3.66 3.02 2.86 1.95 1.87 1.63 1.22 1.27 1.60 1.88 1.79 1.72 1.67 1.55 1.60 1.14 0.85 1.11 0.71 0.71 0.89 0.87 0.65 0.62 0.94 0.94 1.34 0.94 0.97 0.62 0.81 0.92 1.30 1.47 1.93 1.76 1.93 0.86 1.04 0.99 1.17 1.18 1.07 0.92 1.00 0.89 0.79 0.56 0.70 0.46 0.36 0.24 0.13 0.57 0.28
0.00 0.00 0.00 0.00 0.00 0.00 0.00 0.00 0.00 0.00 0.00 0.00 0.00 0.00 0.00 0.00 0.00 0.03 0.12 0.77 0.52 0.06 0.05 0.05 0.10 0.27 0.38 0.58 0.69 0.53 1.07 1.16 1.24 1.78 2.60 2.19 2.86 3.21 2.76 2.64 1.88 2.03 2.23 2.96 2.92 2.58 1.78 1.90 1.88 1.39 2.19 2.34 2.04 1.65 1.40 1.57 1.31 1.45 1.30 1.14 1.07 1.39 0.94 0.58 0.61 0.90 0.92 1.05 1.15 1.26 0.86 1.25 0.98 0.75 1.55 1.38 1.27 1.14 1.46 1.29 1.51 1.32 1.34 1.11 1.18 1.29 0.81 0.65 0.57 0.75 0.51 0.28 0.26 0.30 0.31 0.25 0.45
0.00 0.00 0.00 0.00 0.00 0.00 0.00 0.00 0.00 0.00 0.00 0.00 0.00 0.00 0.00 0.00 0.01 0.10 0.11 0.15 0.90 1.16 0.19 0.06 0.13 0.23 0.44 0.40 0.61 0.47 0.56 0.75 1.57 1.51 2.26 2.66 2.90 2.65 1.67 1.63 1.80 1.29 2.19 3.78 2.67 2.57 3.19 2.32 4.09 4.49 3.56 2.46 2.08 1.50 1.21 1.33 1.39 1.67 1.72 1.70 1.44 1.30 1.14 0.69 0.69 0.60 0.59 0.78 1.01 1.06 1.24 0.93 0.88 1.35 1.39 1.08 1.06 1.22 1.12 1.33 1.30 1.09 1.08 1.05 1.16 1.31 1.00 0.74 0.78 0.72 0.57 0.46 0.39 0.50 0.27 0.52 0.53
0.00 0.00 0.00 0.00 0.00 0.00 0.00 0.00 0.00 0.00 0.00 0.00 0.00 0.01 0.00 0.00 0.05 0.07 1.06 0.51 0.68 0.26 0.26 0.23 0.26 0.20 0.30 0.60 0.74 1.01 1.30 0.59 1.14 1.62 2.21 2.12 2.31 1.56 1.30 1.13 1.00 1.47 2.00 1.81 2.21 2.25 2.43 2.42 2.76 2.75 3.03 2.39 2.16 2.08 1.60 1.15 1.39 1.65 1.57 1.82 1.65 1.00 1.23 1.10 0.93 0.96 0.60 0.54 0.59 0.68 0.81 1.00 0.94 1.13 1.24 1.44 1.43 1.41 1.08 0.98 0.93 1.13 1.01 0.91 1.01 1.17 1.17 0.74 0.73 0.58 0.37 0.44 0.65 0.55 0.38 0.61 0.73
0.00 0.00 0.00 0.00 0.00 0.01 0.00 0.00 0.00 0.00 0.00 0.00 0.00 0.01 0.04 0.01 0.11 0.18 1.22 0.80 0.31 0.20 0.38 0.44 0.40 0.53 0.66 0.91 0.92 0.60 0.61 1.40 1.16 1.44 1.67 2.46 1.97 1.17 1.25 1.30 1.73 3.10 3.13 1.37 1.42 1.90 2.75 2.06 2.42 2.60 2.76 3.05 2.10 1.63 1.62 1.84 1.63 1.13 0.96 1.36 1.66 1.48 1.33 1.03 0.78 0.79 0.82 0.96 1.36 0.91 1.15 1.30 1.13 1.43 1.13 1.10 1.09 1.44 0.94 1.28 0.72 0.95 1.08 0.77 0.84 0.89 0.77 0.50 0.64 0.62 0.71 0.75 0.81 1.49 0.41 0.41 0.69
0.00 0.00 0.01 0.00 0.00 0.02 0.00 0.00 0.00 0.00 0.00 0.00 0.00 0.00 0.14 0.04 0.11 0.10 0.16 0.58 0.47 0.72 0.98 1.20 0.83 0.86 1.39 1.57 1.09 1.16 1.57 0.91 1.21 1.42 1.62 2.19 1.61 2.03 1.69 2.31 2.52 2.67 2.32 2.45 1.86 2.17 1.85 2.04 2.93 2.17 1.64 1.88 1.93 1.84 1.64 1.39 1.61 1.41 1.35 1.23 1.65 1.59 1.53 1.68 1.44 1.40 0.97 0.93 0.99 0.88 1.33 0.84 1.07 1.11 1.09 1.00 1.23 1.02 0.71 0.81 0.73 0.97 0.79 0.77 0.83 0.88 0.65 0.44 0.70 1.59 0.97 0.53 0.82 0.62 0.85 0.82 1.01
0.00 0.00 0.00 0.00 0.00 0.00 0.00 0.00 0.00 0.00 0.00 0.00 0.00 0.03 0.11 0.13 0.17 0.09 0.11 0.23 0.59 0.85 1.23 1.11 0.61 1.09 1.35 1.32 1.02 1.39 0.80 1.76 1.44 1.36 1.17 1.63 2.38 1.92 2.48 2.64 2.99 2.94 3.27 2.59 2.63 2.75 2.25 2.13 2.45 1.83 1.87 1.79 1.84 1.59 1.32 1.48 2.05 1.90 2.10 1.88 1.08 1.78 1.84 1.55 1.61 1.78 1.73 1.10 0.75 0.78 0.68 0.83 0.70 1.27 1.46 1.26 1.24 1.20 1.29 1.29 1.00 0.97 0.73 0.57 0.75 0.80 0.62 0.45 0.80 1.83 1.02 0.64 0.65 1.06 0.95 0.85 0.62
0.01 0.00 0.01 0.00 0.00 0.01 0.00 0.00 0.00 0.00 0.00 0.00 0.00 0.00 0.05 0.10 0.19 0.25 0.36 0.81 0.79 0.52 1.51 1.55 1.68 1.18 0.97 1.45 1.12 0.75 1.28 0.79 1.19 1.13 1.50 2.11 1.75 2.66 2.45 2.43 2.98 2.93 2.47 3.53 2.63 2.25 1.92 2.26 2.00 2.04 2.58 1.75 1.72 1.83 1.86 2.68 2.95 2.75 2.43 2.20 2.33 1.92 1.51 1.83 1.64 1.41 1.67 0.97 0.91 0.81 0.87 0.72 1.15 0.99 1.07 1.08 1.40 1.22 1.62 0.94 1.12 0.97 0.95 0.76 0.70 0.91 0.83 0.58 0.76 1.16 0.81 0.75 0.86 0.85 0.74 0.55 0.93
0.04 0.03 0.01 0.04 0.00 0.00 0.00 0.00 0.01 0.00 0.00 0.00 0.00 0.00 0.06 0.10 0.18 0.24 0.83 0.70 0.87 1.25 1.24 1.08 1.02 0.68 0.47 0.44 0.41 0.88 0.71 0.79 1.04 1.00 1.49 2.39 1.85 2.12 1.83 2.00 2.97 2.15 3.11 2.82 2.81 3.02 2.21 2.06 2.10 2.97 3.23 2.30 2.06 1.86 2.60 2.32 2.31 2.59 2.68 2.12 1.79 1.96 1.95 1.56 1.54 1.50 1.65 2.16 1.57 0.95 1.28 1.46 1.54 1.42 1.44 1.67 1.25 1.11 1.26 1.14 1.12 1.25 1.34 0.85 0.66 0.64 1.17 0.71 0.84 1.14 1.13 0.81 0.55 0.75 0.69 0.71 0.71
0.00 0.00 0.01 0.01 0.00 0.01 0.01 0.00 0.00 0.00 0.00 0.00 0.00 0.04 0.06 0.13 0.21 0.68 2.38 1.64 0.80 0.52 0.69 1.07 0.33 0.43 0.42 0.64 0.83 0.65 0.71 1.25 1.61 1.43 1.72 1.32 2.15 2.54 2.98 2.79 3.11 2.11 1.67 1.98 1.45 2.16 2.38 2.32 1.86 2.04 2.65 1.68 2.14 2.01 1.76 1.84 2.04 1.85 1.68 2.22 1.60 1.39 1.21 1.32 1.69 1.47 1.66 1.54 1.20 1.82 1.71 1.44 1.40 0.89 0.86 0.76 0.86 1.06 1.20 1.19 1.17 1.20 0.99 1.07 0.95 0.94 1.13 0.68 0.95 1.26 1.54 0.85 0.67 0.53 0.71 0.65 0.71
0.00 0.00 0.00 0.01 0.00 0.01 0.00 0.00 0.00 0.00 0.00 0.00 0.02 0.11 0.08 0.16 0.16 0.74 1.84 1.38 0.83 1.13 1.07 0.57 0.47 0.32 0.94 0.44 0.63 0.82 1.22 1.96 1.39 2.05 1.41 1.79 1.95 2.31 2.43 1.99 1.89 2.57 1.69 2.19 1.67 1.42 1.50 1.45 1.52 2.15 2.46 2.44 2.74 0.98 1.52 1.76 1.66 2.24 2.83 1.65 1.66 1.29 1.58 1.41 1.73 1.45 1.81 1.58 1.78 2.04 1.41 1.33 1.27 0.73 0.79 0.53 0.83 0.86 1.09 0.98 0.82 0.86 0.67 0.90 0.84 0.99 1.21 1.11 1.01 1.09 1.23 0.80 1.23 1.71 0.95 0.67 0.86
0.00 0.00 0.00 0.00 0.00 0.01 0.01 0.02 0.00 0.00 0.00 0.02 0.05 0.03 0.09 0.09 0.29 1.01 0.48 0.96 0.91 0.56 1.42 1.39 1.54 1.17 0.63 1.11 1.14 1.49 1.30 1.93 1.36 1.22 1.78 2.36 1.58 1.08 1.06 1.25 1.87 1.89 1.74 1.16 1.55 1.11 1.51 1.31 2.34 2.59 2.80 3.13 3.07 2.08 1.42 1.33 1.89 1.73 1.39 1.47 1.11 1.84 1.62 1.48 1.43 1.91 1.46 1.36 1.72 1.53 1.53 1.27 0.91 1.06 0.72 0.63 0.87 0.83 0.92 0.53 0.47 0.66 0.89 0.77 1.01 0.94 1.02 0.85 1.12 1.62 1.08 0.84 0.71 0.95 0.82 0.48 1.26
0.00 0.00 0.01 0.00 0.03 0.01 0.00 0.00 0.00 0.00 0.00 0.03 0.04 0.05 0.15 0.16 0.26 0.57 0.50 0.53 1.31 1.30 1.91 1.98 1.53 0.94 1.17 0.62 0.94 0.52 0.49 0.43 0.49 1.08 1.15 1.37 1.16 0.78 0.81 0.83 1.10 1.05 1.09 1.47 0.90 1.20 1.30 1.85 2.17 3.22 2.98 3.80 3.56 4.07 3.74 3.53 2.41 2.39 2.03 1.82 1.66 2.20 2.20 2.52 1.96 1.57 1.59 1.51 1.11 1.56 1.18 0.71 0.65 0.80 0.75 0.57 0.70 0.70 0.80 0.84 0.66 1.05 0.79 1.06 1.26 1.52 1.21 0.78 0.96 1.19 1.24 0.64 0.65 0.57 1.04 0.96 1.44
0.00 0.01 0.03 0.04 0.04 0.01 0.06 0.02 0.00 0.00 0.00 0.02 0.03 0.04 0.16 0.16 0.24 0.32 0.16 0.32 0.47 1.05 0.58 1.03 2.03 0.87 0.80 1.14 0.61 1.15 0.61 0.73 1.11 0.95 0.76 0.78 0.65 1.08 1.08 0.78 0.98 1.07 2.00 1.50 1.77 1.91 2.68 2.63 1.77 2.15 2.71 2.13 2.48 3.01 3.38 3.11 2.49 1.95 2.01 2.64 3.58 2.77 3.01 2.24 1.59 2.01 1.67 1.98 1.75 1.87 1.04 0.86 0.81 0.69 0.89 0.94 0.68 0.51 0.96 1.12 1.13 1.39 1.22 1.05 1.04 1.14 1.45 0.99 1.35 0.97 0.88 0.70 0.81 0.99 0.78 1.21 0.63
0.00 0.00 0.01 0.04 0.06 0.02 0.00 0.05 0.00 0.00 0.00 0.00 0.03 0.12 0.15 0.18 0.23 0.21 0.20 0.12 0.11 0.25 0.22 0.61 0.64 0.73 0.75 0.87 0.56 0.62 0.50 0.42 0.54 0.53 1.08 0.68 0.59 0.87 1.16 0.87 1.09 1.46 0.78 1.50 2.02 2.34 2.66 1.63 1.74 1.89 2.09 2.24 2.39 3.26 1.88 2.61 2.65 2.46 2.03 2.36 3.05 2.35 2.67 2.24 2.27 1.82 1.26 1.63 1.79 1.59 0.92 0.57 0.45 0.50 1.26 1.53 1.05 0.78 1.11 1.32 0.96 1.19 0.80 0.95 1.03 1.23 1.07 1.21 1.03 0.76 0.88 0.78 0.72 0.67 0.73 0.71 1.33
0.01 0.02 0.01 0.00 0.00 0.00 0.01 0.00 0.01 0.01 0.10 0.12 0.05 0.23 0.30 0.28 0.34 0.25 0.33 0.30 0.24 0.26 0.34 0.47 0.46 0.64 0.40 0.82 0.81 0.50 0.37 0.64 0.98 0.53 0.65 0.75 0.61 1.01 0.90 1.30 1.85 2.14 1.68 1.19 1.49 1.85 2.16 1.62 1.59 2.50 1.79 2.17 2.87 3.55 2.87 2.70 2.31 1.57 2.07 1.77 1.59 1.39 2.09 1.80 2.17 1.21 0.90 0.80 0.71 0.63 0.86 0.43 0.46 0.44 0.70 1.55 1.18 0.73 1.26 1.55 1.64 1.15 1.06 1.02 1.05 1.14 1.08 1.10 1.14 0.93 0.80 0.99 1.05 0.82 0.86 1.38 1.09
0.01 0.04 0.00 0.00 0.00 0.00 0.00 0.01 0.01 0.02 0.07 0.32 0.01 0.07 0.28 0.21 0.30 0.23 0.36 0.30 0.37 0.39 0.48 0.67 0.58 0.42 0.43 0.73 0.90 0.87 0.63 0.49 0.54 0.59 0.48 0.80 1.18 0.96 0.49 1.13 2.01 1.39 1.60 1.19 1.27 2.05 1.14 1.01 1.40 2.24 2.48 1.37 2.19 2.16 1.88 1.74 1.67 1.47 1.45 1.25 1.68 1.32 1.11 2.03 1.21 0.99 0.68 0.70 0.60 0.67 0.70 1.01 0.80 0.80 0.90 1.22 1.09 0.37 0.88 1.20 0.92 0.94 1.12 1.02 1.21 1.37 1.37 0.76 0.81 0.90 1.01 1.20 1.28 1.13 0.99 0.85 0.50
0.07 0.00 0.00 0.00 0.01 0.00 0.00 0.01 0.00 0.03 0.00 0.01 0.00 0.02 0.14 0.32 0.15 0.08 0.20 0.31 0.24 0.52 0.55 0.31 0.47 0.37 0.41 0.63 1.13 1.07 0.38 0.52 0.60 0.41 0.97 1.26 0.98 0.78 0.65 1.08 1.44 1.65 1.76 1.14 1.75 2.05 1.53 1.03 1.03 2.09 1.19 1.60 1.49 1.29 0.92 0.87 1.83 1.61 1.54 1.41 1.88 2.03 1.54 1.89 0.85 0.79 0.82 0.79 1.06 0.69 1.06 1.48 1.02 1.31 1.34 1.12 1.38 1.23 1.22 1.23 1.32 1.23 0.65 0.98 0.91 0.90 1.02 0.99 0.83 0.99 1.01 1.14 1.34 1.10 1.10 0.93 0.88
0.01 0.00 0.00 0.00 0.00 0.01 0.00 0.00 0.02 0.03 0.04 0.15 0.08 0.04 0.11 0.20 0.17 0.07 0.27 0.39 0.26 0.46 0.34 0.26 0.37 0.47 0.71 0.65 0.67 0.70 0.92 0.89 1.06 1.71 0.94 1.53 0.75 1.53 1.25 0.72 1.01 1.12 1.04 1.43 2.16 3.03 1.96 1.40 1.29 1.72 1.33 1.35 1.05 1.11 1.08 1.38 1.71 1.92 1.95 2.09 1.78 1.68 2.03 1.82 1.12 0.72 0.80 0.69 0.70 1.39 1.32 2.18 2.13 1.95 1.79 1.26 1.15 0.96 0.77 0.72 0.82 0.87 0.76 0.77 0.60 0.86 1.00 0.88 0.79 0.77 0.77 1.22 1.22 0.69 1.03 1.64 1.11
0.00 0.00 0.00 0.00 0.00 0.00 0.00 0.01 0.02 0.04 0.05 0.12 0.07 0.05 0.06 0.39 0.13 0.26 0.22 0.19 0.20 0.27 0.27 0.49 0.60 1.11 0.54 0.69 0.38 0.38 0.55 0.31 0.47 0.57 0.73 0.90 1.63 1.35 0.76 0.36 0.75 1.23 2.64 2.45 2.97 3.03 1.72 1.51 1.46 0.93 1.35 1.31 1.32 1.60 0.91 1.13 0.96 1.97 2.30 2.25 1.80 1.92 1.94 1.02 0.88 0.96 0.96 1.14 0.84 1.56 1.74 1.04 1.20 1.06 1.04 1.50 1.47 1.36 1.18 0.93 0.87 0.82 0.81 1.08 0.72 0.80 0.94 0.87 1.00 0.89 0.54 0.88 0.94 1.15 0.99 2.01 0.87
0.00 0.00 0.00 0.01 0.03 0.05 0.01 0.01 0.02 0.18 0.05 0.12 0.04 0.04 0.03 0.28 0.32 0.26 0.32 0.18 0.12 0.22 0.24 0.22 0.27 0.36 0.51 0.60 0.93 0.83 0.30 0.33 0.44 0.75 0.80 1.44 1.85 1.34 0.72 0.83 1.40 1.75 2.66 2.66 3.42 1.68 1.46 1.48 1.76 1.50 0.95 1.33 1.36 1.26 0.85 1.11 1.28 1.11 1.49 1.47 1.77 1.69 1.01 1.06 1.18 0.85 1.08 1.25 0.98 1.12 0.94 0.80 0.63 0.72 0.70 0.84 0.90 0.88 1.03 0.83 0.65 0.73 0.70 0.63 0.70 0.94 0.97 1.16 0.75 0.78 0.71 0.74 0.94 1.14 0.71 1.11 1.47
0.00 0.05 0.03 0.02 0.06 0.01 0.02 0.07 0.07 0.10 0.13 0.08 0.06 0.08 0.16 0.22 0.47 0.37 0.15 0.09 0.10 0.12 0.12 0.16 0.13 0.23 0.32 0.20 0.25 0.22 0.27 0.31 0.40 0.51 0.88 1.41 0.79 0.87 0.69 0.96 1.41 3.16 3.28 3.08 1.78 1.27 1.33 1.33 1.53 1.25 1.19 0.83 1.07 1.54 1.39 1.55 2.00 1.33 2.03 1.91 1.26 1.17 1.25 0.89 0.65 0.43 0.49 0.71 0.77 0.80 0.61 0.68 0.81 0.93 1.54 0.96 0.81 0.60 0.59 0.56 0.60 0.69 0.64 0.54 0.49 0.57 0.79 0.61 0.75 0.88 1.02 0.91 0.70 0.87 0.80 1.00 0.87
0.01 0.03 0.06 0.19 0.32 0.10 0.17 0.28 0.15 0.10 0.18 0.06 0.02 0.04 0.08 0.11 0.34 0.54 0.15 0.12 0.08 0.07 0.11 0.18 0.12 0.13 0.13 0.08 0.12 0.54 0.27 0.43 0.65 0.66 0.78 0.93 0.95 0.86 1.10 1.93 1.31 1.02 2.52 2.25 1.53 1.67 1.11 1.26 1.58 1.69 1.96 1.25 1.80 1.70 1.48 2.11 2.66 2.13 2.79 1.76 0.91 1.26 0.86 1.19 0.72 0.56 1.07 0.94 0.95 1.01 0.83 0.96 0.60 0.98 0.61 0.56 0.55 0.57 0.42 0.46 0.46 0.55 0.57 0.70 0.72 0.65 0.76 0.60 1.53 1.13 1.01 0.98 0.87 0.62 0.71 0.79 1.02
0.07 0.06 0.10 0.12 0.17 0.24 0.13 0.15 0.16 0.14 0.08 0.04 0.08 0.05 0.14 0.34 0.24 0.25 0.15 0.13 0.07 0.04 0.07 0.12 0.07 0.06 0.08 0.09 0.10 0.17 0.19 0.48 0.56 0.77 0.67 0.76 0.63 1.30 1.03 0.81 0.74 0.98 1.97 2.16 1.29 1.15 1.76 1.44 1.40 1.91 1.80 1.24 2.11 2.16 1.58 1.24 2.43 2.68 1.73 0.86 0.55 0.57 0.81 1.05 1.25 0.53 0.44 0.64 0.86 0.43 0.55 0.57 0.54 0.62 0.91 0.70 0.45 0.60 0.87 0.64 0.74 0.53 0.56 0.71 0.95 0.78 0.60 0.68 0.79 0.71 0.88 0.84 0.85 0.79 0.77 0.94 0.86
0.13 0.03 0.03 0.14 0.21 0.22 0.10 0.11 0.18 0.19 0.27 0.21 0.09 0.03 0.18 0.25 1.59 0.27 0.10 0.11 0.05 0.04 0.12 0.06 0.09 0.10 0.16 0.09 0.20 0.19 0.26 0.17 0.25 0.32 0.50 1.05 1.32 1.18 0.91 1.17 0.98 0.79 1.65 1.41 1.01 0.96 0.83 0.84 1.31 1.80 2.04 1.82 1.82 2.19 1.18 1.71 1.99 1.23 1.67 1.10 0.73 0.59 0.38 0.91 0.97 0.55 0.59 0.42 0.53 1.08 0.59 0.57 0.76 0.93 0.97 0.55 0.62 0.53 1.07 0.61 0.58 0.54 0.51 0.62 0.81 0.75 0.71 0.99 1.14 1.25 0.84 0.86 1.22 0.94 1.00 0.81 0.84
0.02 0.05 0.09 0.16 0.14 0.10 0.15 0.26 0.09 0.23 0.16 0.10 0.13 0.15 0.32 0.65 0.86 0.94 0.67 0.09 0.03 0.06 0.09 0.04 0.07 0.08 0.10 0.15 0.16 0.21 0.21 0.21 0.39 0.58 1.11 1.25 1.25 1.23 1.08 0.90 0.89 0.77 0.86 0.67 0.49 0.62 1.20 1.10 1.17 1.82 2.40 2.58 2.41 2.31 2.42 2.93 1.91 0.81 0.83 0.56 0.57 0.65 0.68 0.68 0.79 1.01 1.09 0.76 0.76 0.65 0.94 0.64 1.02 0.45 0.34 0.37 0.68 0.62 0.52 0.66 0.74 0.58 0.91 1.08 0.87 0.83 0.88 0.53 0.71 0.72 0.72 0.53 0.76 0.94 1.14 0.65 0.53
0.17 0.02 0.15 0.06 0.07 0.11 0.27 0.05 0.03 0.02 0.02 0.13 0.03 0.26 0.37 0.20 0.46 0.70 0.63 0.05 0.10 0.14 0.07 0.05 0.28 0.39 0.52 0.62 0.84 0.92 0.88 0.79 0.98 1.31 1.35 1.18 1.23 1.07 1.11 0.74 0.76 0.42 0.47 0.47 0.71 1.10 1.01 1.05 0.85 0.81 1.04 0.99 2.11 1.74 1.53 2.32 1.75 1.26 1.27 0.94 0.65 0.79 0.63 0.56 0.63 0.32 0.29 0.47 0.71 0.76 0.61 0.37 0.70 0.84 0.68 0.78 0.83 0.77 0.54 0.90 0.88 0.94 0.81 0.77 0.70 0.62 0.70 0.53 0.71 0.70 0.59 0.50 0.67 0.57 0.81 0.80 0.90
0.06 0.12 0.18 0.09 0.03 0.10 0.11 0.21 0.12 0.07 0.13 0.23 0.08 0.26 0.52 0.16 1.17 0.78 0.62 0.40 0.29 0.23 0.27 0.44 0.46 0.54 0.63 0.79 0.75 0.87 1.01 1.08 0.83 0.95 0.79 0.76 0.66 0.91 0.94 0.67 0.85 0.55 1.06 0.59 0.55 0.82 0.76 1.14 1.12 0.75 1.11 1.44 1.38 1.42 1.13 1.08 1.26 1.63 1.07 0.79 0.75 0.57 0.57 0.38 0.57 0.61 0.53 0.74 0.71 1.12 0.81 0.91 0.49 0.38 0.51 0.66 0.54 0.53 0.45 0.58 0.99 0.60 0.82 0.81 0.63 0.69 0.78 0.77 0.92 1.03 0.57 0.44 0.47 0.75 0.64 0.85 0.86
0.03 0.16 0.05 0.20 0.55 0.30 0.12 0.06 0.19 0.29 0.13 0.16 0.13 0.13 0.33 0.33 0.79 0.50 0.89 0.71 0.50 0.44 0.33 0.20 0.18 0.15 0.38 0.72 0.98 0.93 0.56 0.59 0.55 0.72 0.70 0.44 0.55 0.50 0.66 0.57 0.49 1.01 1.18 0.63 0.95 1.13 0.55 0.67 0.50 0.41 1.22 1.78 1.92 1.89 1.55 2.02 1.33 1.89 1.08 0.71 0.68 0.49 0.96 0.89 0.77 0.96 1.48 1.42 0.91 1.03 0.69 0.55 0.92 1.00 0.92 0.83 0.77 0.93 1.05 0.64 0.55 0.95 0.67 0.86 0.73 0.72 0.53 0.63 0.73 0.68 0.60 0.70 0.64 1.19 1.02 0.77 0.50
0.02 0.03 0.28 0.18 0.10 0.22 0.30 0.17 0.30 0.23 0.44 0.09 0.36 0.11 0.30 0.32 0.63 0.47 0.57 0.40 0.54 0.36 0.26 0.36 0.37 0.48 0.34 0.36 0.27 0.40 0.42 0.58 0.65 0.72 0.74 0.65 0.57 0.90 0.79 0.76 0.74 0.77 0.45 0.61 1.16 1.47 1.29 1.75 0.68 0.78 1.07 2.17 0.78 0.48 1.48 1.36 0.92 0.66 0.82 0.82 0.67 0.62 0.42 0.70 0.87 0.89 1.07 0.86 0.41 0.69 0.96 0.96 1.31 1.53 1.64 1.33 1.22 1.08 1.34 0.90 0.83 0.64 0.73 0.86 0.85 1.04 0.83 0.63 0.78 0.80 0.68 0.95 0.79 0.93 0.76 0.58 0.59
0.18 0.10 0.29 0.13 0.13 0.21 0.11 0.24 0.17 0.21 0.24 0.21 0.18 0.37 0.75 0.57 0.42 0.33 0.53 0.34 0.25 0.60 0.52 0.38 0.51 0.54 0.71 0.63 0.37 0.42 0.45 0.48 0.43 0.64 0.51 0.83 0.76 0.79 0.80 0.74 0.88 0.83 0.70 1.40 1.61 1.64 1.83 1.88 1.43 2.24 2.27 1.66 1.66 1.53 1.61 1.54 1.18 0.76 0.64 0.67 0.58 0.41 0.24 0.36 0.86 1.16 1.44 1.19 0.97 1.26 1.15 0.87 1.49 1.40 1.15 1.62 1.69 1.98 1.81 1.27 0.99 1.24 1.12 0.81 0.63 1.12 0.81 1.21 0.86 0.74 0.83 0.85 1.16 0.81 0.59 0.77 0.98
0.31 0.16 0.24 0.15 0.22 0.28 0.29 0.39 0.02 0.11 0.15 0.30 0.22 0.35 0.54 0.67 0.40 0.92 0.48 0.26 0.61 0.66 0.70 0.70 0.56 0.49 0.36 0.33 0.50 0.40 0.57 0.42 0.33 0.26 0.54 0.54 0.63 1.04 0.90 0.88 1.07 1.19 1.08 0.83 0.90 0.75 0.69 1.04 1.71 1.87 2.54 2.31 2.40 2.32 2.06 2.46 1.70 1.84 1.43 1.96 1.14 1.51 0.87 0.34 0.42 1.34 1.61 1.86 1.80 2.11 1.26 0.59 1.19 1.86 1.16 1.17 0.70 0.93 0.71 0.91 0.74 0.65 0.79 0.75 1.02 1.05 1.23 1.03 1.32 0.81 0.70 0.98 0.47 0.45 0.56 0.87 0.98